Le nostre stazioni meteo in Italia

Pubblicità
Il mio iltempo24.it
Achnagart, Gran Bretagna (99191): Temperatura & dewpoint: 05.12.2018 01:00:00 - 11.12.2018 01:00:00 (GMT)Achnagart, Gran Bretagna (99191): precipitazioni: 05.12.2018 01:00:00 - 11.12.2018 01:00:00 (GMT)
Data & Tempo tt [°C] td [°C] rr [mm]
11.12.2018 01:00:00 8,8 3,7 0,0
11.12.2018 00:00:00 8,2 3,2 0,0
10.12.2018 23:00:00 8,3 2,8 0,0
10.12.2018 22:00:00 7,1 2,6 0,0
10.12.2018 21:00:00 6,6 2,6 0,0
10.12.2018 20:00:00 5,2 1,8 0,0
10.12.2018 19:00:00 4,8 1,5 0,0
10.12.2018 18:00:00 4,8 1,4 0,0
10.12.2018 17:00:00 4,3 1,5 0,0
10.12.2018 16:00:00 3,9 1,4 0,0
10.12.2018 15:00:00 3,8 2,4 0,0
10.12.2018 14:00:00 3,1 2,7 0,0
10.12.2018 13:00:00 2,3 2,3 0,0
10.12.2018 12:00:00 0,9 0,9 0,0
10.12.2018 11:00:00 0,3 0,3 0,0
10.12.2018 10:00:00 -0,6 -0,8 0,0
10.12.2018 09:00:00 -0,3 -0,5 0,0
10.12.2018 08:00:00 0,6 0,4 0,0
10.12.2018 07:00:00 1,6 1,5 0,0
10.12.2018 06:00:00 1,3 1,1 0,0
10.12.2018 05:00:00 2,2 2,0 0,0
10.12.2018 04:00:00 2,1 1,9 0,2
10.12.2018 03:00:00 2,6 2,5 0,0
10.12.2018 02:00:00 2,1 1,9 0,0
10.12.2018 01:00:00 3,0 2,8 0,2
10.12.2018 00:00:00 2,4 2,2 0,0
09.12.2018 23:00:00 2,6 2,0 0,6
09.12.2018 22:00:00 4,2 3,5 0,6
09.12.2018 21:00:00 4,4 3,3 0,2
09.12.2018 20:00:00 4,6 2,0 0,0
09.12.2018 19:00:00 4,2 2,5 0,0
09.12.2018 18:00:00 3,3 2,4 0,0
09.12.2018 17:00:00 3,9 3,0 0,0
09.12.2018 16:00:00 4,4 3,1 0,2
09.12.2018 15:00:00 5,2 2,9 0,0
09.12.2018 14:00:00 5,6 3,1 0,0
09.12.2018 13:00:00 5,7 3,5 0,0
09.12.2018 12:00:00 5,0 2,6 0,0
09.12.2018 11:00:00 5,6 3,9 0,2
09.12.2018 10:00:00 4,8 3,6 0,0
09.12.2018 09:00:00 4,9 3,1 0,0
09.12.2018 08:00:00 4,7 2,4 0,0
09.12.2018 07:00:00 5,1 2,2 0,0
09.12.2018 06:00:00 3,3 2,4 0,0
09.12.2018 05:00:00 3,2 1,9 0,0
09.12.2018 04:00:00 4,6 3,5 0,0
09.12.2018 03:00:00 4,1 3,7 0,2
09.12.2018 02:00:00 3,4 3,0 0,0
09.12.2018 01:00:00 3,8 3,5 0,0
09.12.2018 00:00:00 3,7 3,1 0,0
08.12.2018 23:00:00 4,9 4,5 0,0
08.12.2018 22:00:00 5,6 5,2 0,0
08.12.2018 21:00:00 5,6 5,2 0,0
08.12.2018 20:00:00 5,9 5,5 0,2
08.12.2018 19:00:00 6,4 5,6 0,4
08.12.2018 18:00:00 6,2 5,4 0,0
08.12.2018 17:00:00 6,1 5,5 0,0
08.12.2018 16:00:00 6,7 6,0 0,4
08.12.2018 15:00:00 7,2 5,5 0,0
08.12.2018 14:00:00 8,4 4,7 0,2
08.12.2018 13:00:00 8,9 4,5 0,0
08.12.2018 12:00:00 8,5 5,7 0,0
08.12.2018 11:00:00 8,3 5,4 0,0
08.12.2018 10:00:00 8,1 5,4 0,0
08.12.2018 09:00:00 8,1 5,7 0,6
08.12.2018 08:00:00 7,7 5,7 2,6
08.12.2018 07:00:00 7,7 5,8 4,2
08.12.2018 06:00:00 8,5 5,9 1,8
08.12.2018 05:00:00 8,0 6,0 0,6
08.12.2018 04:00:00 8,6 5,6 1,2
08.12.2018 03:00:00 8,3 5,7 0,4
08.12.2018 02:00:00 8,6 4,8 0,0
08.12.2018 01:00:00 8,5 4,9 0,0
08.12.2018 00:00:00 8,0 6,0 1,4
07.12.2018 23:00:00 8,1 5,5 0,6
07.12.2018 22:00:00 8,2 5,9 2,2
07.12.2018 21:00:00 8,2 6,0 0,8
07.12.2018 20:00:00 8,1 5,9 2,4
07.12.2018 19:00:00 8,3 5,4 0,6
07.12.2018 18:00:00 8,6 5,0 3,0
07.12.2018 17:00:00 8,3 4,2 2,2
07.12.2018 16:00:00 8,8 4,4 2,2
07.12.2018 15:00:00 8,1 4,6 3,2
07.12.2018 14:00:00 7,8 3,8 2,0
07.12.2018 13:00:00 7,0 4,2 4,2
07.12.2018 12:00:00 7,3 3,7 3,2
07.12.2018 11:00:00 7,4 4,0 1,4
07.12.2018 10:00:00 7,4 3,9 0,8
07.12.2018 09:00:00 7,9 3,7 1,6
07.12.2018 08:00:00 8,1 3,6 0,4
07.12.2018 07:00:00 8,8 2,7 0,2
07.12.2018 06:00:00 8,6 3,8 0,0
07.12.2018 05:00:00 9,6 4,5 2,4
07.12.2018 04:00:00 9,3 7,4 0,8
07.12.2018 03:00:00 9,6 5,7 0,4
07.12.2018 02:00:00 9,9 4,8 0,2
07.12.2018 01:00:00 10,3 4,4 0,0
07.12.2018 00:00:00 9,9 4,8 0,0
06.12.2018 23:00:00 9,9 4,5 0,0
06.12.2018 22:00:00 9,3 4,9 0,0
06.12.2018 21:00:00 9,6 5,3 0,0
06.12.2018 20:00:00 10,2 4,9 0,0
06.12.2018 19:00:00 9,6 4,3 0,0
06.12.2018 18:00:00 9,7 4,7 0,2
06.12.2018 17:00:00 10,4 5,6 0,0
06.12.2018 16:00:00 9,4 6,1 0,6
06.12.2018 15:00:00 9,2 6,3 2,6
06.12.2018 14:00:00 10,6 4,5 0,0
06.12.2018 13:00:00 10,1 6,1 2,6
06.12.2018 12:00:00 11,8 6,7 0,4
06.12.2018 11:00:00 11,7 9,1 0,6
06.12.2018 10:00:00 11,8 9,9 1,6
06.12.2018 09:00:00 9,3 8,7 2,0
06.12.2018 08:00:00 9,3 7,6 2,8
06.12.2018 07:00:00 8,8 6,7 1,0
06.12.2018 06:00:00 9,1 6,0 0,8
06.12.2018 05:00:00 9,1 4,5 0,0
06.12.2018 04:00:00 8,9 4,1 0,0
06.12.2018 03:00:00 7,3 3,5 0,0
06.12.2018 02:00:00 7,4 3,2 0,0
06.12.2018 01:00:00 6,4 2,6 0,0
06.12.2018 00:00:00 5,8 2,2 0,0
05.12.2018 23:00:00 5,8 1,9 0,0
05.12.2018 22:00:00 5,3 1,7 0,0
05.12.2018 21:00:00 5,2 1,5 0,0
05.12.2018 20:00:00 5,1 0,9 0,0
05.12.2018 19:00:00 5,0 0,8 0,0
05.12.2018 18:00:00 5,4 1,1 0,0
05.12.2018 17:00:00 4,8 0,9 0,0
05.12.2018 16:00:00 4,6 0,3 0,0
05.12.2018 15:00:00 5,0 0,7 0,0
05.12.2018 14:00:00 4,0 -0,4 0,0
05.12.2018 13:00:00 3,3 -1,0 0,0
05.12.2018 12:00:00 2,7 -1,1 0,0
05.12.2018 11:00:00 2,2 -1,4 0,0
05.12.2018 10:00:00 2,3 -1,6 0,0
05.12.2018 09:00:00 2,3 -1,5 0,0
05.12.2018 08:00:00 2,3 -1,3 0,0
05.12.2018 07:00:00 1,5 -1,1 0,0
05.12.2018 06:00:00 1,2 -0,8 0,0
05.12.2018 05:00:00 1,5 -0,4 0,0
05.12.2018 04:00:00 1,8 -0,4 0,0
05.12.2018 03:00:00 1,6 -0,1 0,0
05.12.2018 02:00:00 1,2 0,0 0,0
05.12.2018 01:00:00 1,5 0,4 0,0

tt = Temperatura
td = dewpoint
rr = precipitazioni

Stazioni seguenti

WeatherPro
AMSI
MeteoEarth